Terug naar catalogus

DYNAMICS EXPLORER 1

ActiefWetenschapHEO
NORAD 12624·PAYLOAD·🇺🇸 United States

Gelanceerd Aug 3, 1981 vanaf Vandenberg Space Force Base

Loading…

Volgende Passages (komende 24 uur)

TLE

VersSource: Space-Track

Epoch: Sep 14, 2026, 11:55 UTC

1 12624U 81070A   26257.49680262  .00000108  00000-0  41578-3 0  9997
2 12624  90.9436  48.5988 6231520 171.2658 209.2781  3.52938174728300

Volg DYNAMICS EXPLORER 1 in realtime met AllMySat

Download on the App Store